DW3016 Weather Reports


time (UTC)temp
C
wind
direction
speed
KPH
gust
KPH
rain 1hr
cm
rain 24hr
cm
rain mn
cm
humidity
%
barometer
mb
20260906172424 27 344 1.6 6.4 0.00 0.00 0.00 82 1018.2
20260906171919 27 198 3.2 4.8 0.00 0.00 0.00 81 1018.0
20260906171419 27 141 0.0 4.8 0.00 0.00 0.00 81 1017.9
20260906170915 27 189 3.2 6.4 0.00 0.00 0.00 81 1017.9
20260906170411 27 358 3.2 9.7 0.00 0.00 0.00 80 1018.0
20260906165907 27 214 0.0 6.4 0.00 0.00 0.00 81 1018.2
20260906165406 27 293 4.8 11.3 0.00 0.00 0.00 79 1018.1
20260906164901 27 261 1.6 9.7 0.00 0.00 0.00 80 1018.0
20260906164400 27 219 3.2 6.4 0.00 0.00 0.00 78 1018.0
20260906163856 27 328 1.6 9.7 0.00 0.00 0.00 80 1018.0
20260906163352 27 98 4.8 11.3 0.00 0.00 0.00 79 1017.9
20260906162850 27 159 3.2 9.7 0.00 0.00 0.00 79 1018.0
20260906162349 27 153 6.4 11.3 0.00 0.00 0.00 78 1018.0
20260906161844 28 254 3.2 9.7 0.00 0.00 0.00 77 1018.0
20260906161344 27 267 3.2 4.8 0.00 0.00 0.00 77 1018.1
20260906160843 27 87 3.2 6.4 0.00 0.00 0.00 78 1017.9
20260906160337 27 32 3.2 4.8 0.00 0.00 0.00 78 1018.1
20260906155835 27 7 0.0 6.4 0.00 0.00 0.00 79 1018.1
20260906155328 27 194 3.2 4.8 0.00 0.00 0.00 78 1018.1
20260906154825 27 250 3.2 6.4 0.00 0.00 0.00 79 1018.2
20260906154320 27 126 1.6 3.2 0.00 0.00 0.00 79 1018.2
20260906153819 27 340 3.2 4.8 0.00 0.00 0.00 79 1018.2
20260906153318 27 204 1.6 11.3 0.00 0.00 0.00 79 1018.3
20260906152813 27 200 1.6 4.8 0.00 0.00 0.00 80 1018.2
20260906152308 27 208 3.2 4.8 0.00 0.00 0.00 78 1018.3
20260906151808 27 175 0.0 3.2 0.00 0.00 0.00 80 1018.3
20260906151303 27 174 1.6 6.4 0.00 0.00 0.00 78 1018.4
20260906150759 27 234 3.2 4.8 0.00 0.00 0.00 80 1018.4
20260906150254 26 5 1.6 9.7 0.00 0.00 0.00 81 1018.4
20260906145753 26 149 0.0 6.4 0.00 0.00 0.00 83 1018.4
20260906145251 26 133 1.6 6.4 0.00 0.00 0.00 83 1018.4
20260906144747 25 305 3.2 6.4 0.00 0.00 0.00 85 1018.5
20260906144242 25 3 1.6 4.8 0.00 0.00 0.00 86 1018.4
20260906143741 25 254 1.6 4.8 0.00 0.00 0.00 87 1018.4
20260906143238 25 152 1.6 3.2 0.00 0.00 0.00 86 1018.4
20260906142738 25 176 3.2 11.3 0.00 0.00 0.00 85 1018.4
20260906142233 25 238 1.6 3.2 0.00 0.00 0.00 86 1018.4
20260906141732 25 151 1.6 3.2 0.00 0.00 0.00 87 1018.5
20260906141227 24 178 0.0 1.6 0.00 0.00 0.00 90 1018.3
20260906140727 24 317 0.0 1.6 0.00 0.00 0.00 90 1018.2
20260906140221 23 302 6.4 9.7 0.00 0.00 0.00 90 1018.4
20260906135718 23 216 1.6 4.8 0.00 0.00 0.00 91 1018.3
20260906135214 23 230 0.0 4.8 0.00 0.00 0.00 92 1018.3
20260906134709 23 182 1.6 4.8 0.00 0.00 0.00 92 1018.3
20260906134205 23 332 3.2 3.2 0.00 0.00 0.00 92 1018.2
20260906133700 23 165 3.2 4.8 0.00 0.00 0.00 92 1018.2
20260906133155 23 292 0.0 0.0 0.00 0.00 0.00 94 1018.3
20260906132651 22 276 0.0 4.8 0.00 0.00 0.00 94 1018.2
20260906132146 22 359 1.6 4.8 0.00 0.00 0.00 94 1018.4
20260906131642 22 264 0.0 0.0 0.00 0.00 0.00 95 1018.2
20260906131136 22 39 0.0 1.6 0.00 0.00 0.00 95 1018.4
20260906130632 22 193 0.0 4.8 0.00 0.00 0.00 96 1018.3
20260906130127 22 251 0.0 0.0 0.00 0.00 0.00 96 1018.4
20260906125625 22 245 0.0 4.8 0.00 0.00 0.00 97 1018.2
20260906125123 21 200 0.0 3.2 0.00 0.00 0.00 97 1018.2
20260906124619 21 292 0.0 1.6 0.00 0.00 0.00 97 1018.0
20260906124114 21 198 0.0 3.2 0.00 0.00 0.00 97 1017.9
20260906123614 21 358 1.6 3.2 0.00 0.00 0.00 97 1017.9
20260906123109 21 317 4.8 9.7 0.00 0.00 0.00 98 1017.6
20260906122608 21 184 0.0 6.4 0.00 0.00 0.00 98 1017.8
20260906122104 21 147 0.0 1.6 0.00 0.00 0.00 98 1017.4
20260906121600 21 217 0.0 4.8 0.00 0.00 0.00 98 1017.4
20260906121056 21 172 0.0 1.6 0.00 0.00 0.00 98 1017.5
20260906120551 21 93 0.0 1.6 0.00 0.00 0.00 98 1017.5
20260906120048 21 159 0.0 3.2 0.00 0.00 0.00 98 1017.5
20260906115549 21 115 1.6 3.2 0.00 0.00 0.00 98 1017.4
20260906115044 21 311 0.0 1.6 0.00 0.00 0.00 98 1017.4
20260906114543 21 276 1.6 4.8 0.00 0.00 0.00 98 1017.2
20260906114039 21 288 0.0 4.8 0.00 0.00 0.00 98 1017.1
20260906113538 21 8 0.0 3.2 0.00 0.00 0.00 98 1017.1
20260906113033 21 264 0.0 3.2 0.00 0.00 0.00 98 1017.0
20260906112528 21 188 1.6 3.2 0.00 0.00 0.00 98 1017.0
20260906112025 21 224 0.0 1.6 0.00 0.00 0.00 98 1017.0
20260906111524 21 216 0.0 0.0 0.00 0.00 0.00 97 1016.9
20260906111020 21 200 0.0 3.2 0.00 0.00 0.00 97 1017.2
20260906110520 21 280 0.0 1.6 0.00 0.00 0.00 97 1017.3
20260906110019 21 178 1.6 4.8 0.00 0.00 0.00 97 1017.2
20260906105514 21 226 0.0 1.6 0.00 0.00 0.00 97 1017.3
20260906105010 21 329 1.6 1.6 0.00 0.00 0.00 97 1017.3
20260906104508 21 192 0.0 1.6 0.00 0.00 0.00 97 1017.2
20260906104003 21 174 0.0 1.6 0.00 0.00 0.00 97 1017.4
20260906103501 21 199 1.6 1.6 0.00 0.00 0.00 97 1017.2
20260906102956 21 193 0.0 1.6 0.00 0.00 0.00 97 1017.3
20260906102451 21 285 0.0 1.6 0.00 0.00 0.00 97 1017.1
20260906101950 21 298 1.6 1.6 0.00 0.00 0.00 97 1017.3
20260906101446 21 226 0.0 4.8 0.00 0.00 0.00 97 1017.2
20260906100946 22 179 1.6 1.6 0.00 0.00 0.00 97 1017.2
20260906100441 22 172 3.2 4.8 0.00 0.00 0.00 97 1017.2
20260906095935 22 50 1.6 3.2 0.00 0.00 0.00 97 1017.0
20260906095431 22 160 1.6 3.2 0.00 0.00 0.00 97 1017.2
20260906094926 22 200 0.0 0.0 0.00 0.00 0.00 97 1017.5
20260906094420 22 47 0.0 3.2 0.00 0.00 0.00 96 1017.3
20260906093916 22 343 3.2 4.8 0.00 0.00 0.00 96 1017.1
20260906093413 22 214 1.6 4.8 0.00 0.00 0.00 96 1017.0
20260906092912 22 283 0.0 4.8 0.00 0.00 0.00 96 1017.0
20260906092412 22 246 0.0 1.6 0.00 0.00 0.00 96 1017.0
20260906091908 22 216 0.0 3.2 0.00 0.00 0.00 96 1017.1
20260906091403 22 294 0.0 1.6 0.00 0.00 0.00 96 1016.8
20260906090900 22 322 0.0 6.4 0.00 0.00 0.00 96 1016.8
20260906090359 22 23 0.0 3.2 0.00 0.00 0.00 96 1016.6
20260906085854 22 310 0.0 4.8 0.00 0.00 0.00 95 1016.7
20260906085353 22 238 0.0 3.2 0.00 0.00 0.00 95 1016.5
20260906084848 22 13 6.4 12.9 0.00 0.00 0.00 95 1016.6
20260906084348 22 216 0.0 4.8 0.00 0.00 0.00 95 1016.8
20260906083842 22 326 0.0 1.6 0.00 0.00 0.00 95 1016.7
20260906083338 22 340 0.0 1.6 0.00 0.00 0.00 95 1016.7
20260906082838 22 322 0.0 3.2 0.00 0.00 0.00 94 1016.6
20260906082333 22 8 0.0 4.8 0.00 0.00 0.00 94 1016.6
20260906081829 22 260 0.0 0.0 0.00 0.00 0.00 94 1016.7
20260906081324 22 26 4.8 4.8 0.00 0.00 0.00 94 1016.7
20260906080820 22 180 0.0 4.8 0.00 0.00 0.00 94 1016.5
20260906080317 22 305 1.6 6.4 0.00 0.00 0.00 94 1016.5
20260906075816 22 9 1.6 3.2 0.00 0.00 0.00 94 1016.6
20260906075315 22 352 6.4 9.7 0.00 0.00 0.00 94 1016.6
20260906074811 22 53 0.0 4.8 0.00 0.00 0.00 94 1016.5
20260906074311 22 177 0.0 3.2 0.00 0.00 0.00 94 1016.4
20260906073810 23 193 1.6 4.8 0.00 0.00 0.00 94 1016.1
20260906073305 23 276 3.2 6.4 0.00 0.00 0.00 94 1016.5
20260906072801 23 271 1.6 3.2 0.00 0.00 0.00 95 1016.5
20260906072256 23 212 1.6 3.2 0.00 0.00 0.00 95 1016.6
20260906071752 23 355 1.6 3.2 0.00 0.00 0.00 94 1016.6
20260906071252 23 246 0.0 6.4 0.00 0.00 0.00 94 1016.6
20260906070749 23 141 0.0 4.8 0.00 0.00 0.00 94 1016.7
20260906070244 23 177 1.6 4.8 0.00 0.00 0.00 94 1016.6
20260906065744 23 235 1.6 11.3 0.00 0.00 0.00 94 1016.7
20260906065239 23 154 1.6 6.4 0.00 0.00 0.00 94 1016.7
20260906064735 23 321 0.0 3.2 0.00 0.00 0.00 94 1016.8
20260906064230 23 245 1.6 9.7 0.00 0.00 0.00 94 1016.9
20260906063725 23 219 0.0 1.6 0.00 0.00 0.00 94 1016.8
20260906063221 23 138 1.6 6.4 0.00 0.00 0.00 94 1016.7
20260906062716 23 193 0.0 4.8 0.00 0.00 0.00 94 1016.8
20260906062215 23 45 1.6 3.2 0.00 0.00 0.00 94 1016.8
20260906061711 23 186 1.6 4.8 0.00 0.00 0.00 94 1016.4
20260906061207 23 337 0.0 1.6 0.00 0.00 0.00 94 1016.5
20260906060702 24 95 1.6 4.8 0.00 0.00 0.00 95 1016.6
20260906060159 24 216 1.6 3.2 0.00 0.00 0.00 95 1016.7
20260906055655 24 173 0.0 4.8 0.00 0.00 0.00 96 1016.6
20260906055150 24 26 0.0 0.0 0.00 0.00 0.00 96 1016.7
20260906054645 24 170 0.0 4.8 0.00 0.00 0.00 96 1016.5
20260906054140 24 248 0.0 3.2 0.00 0.00 0.00 96 1016.5
20260906053637 24 12 0.0 3.2 0.00 0.00 0.00 96 1016.6
20260906053131 24 230 0.0 3.2 0.00 0.00 0.00 96 1016.5
20260906052627 25 11 3.2 4.8 0.00 0.00 0.00 96 1016.6
20260906052123 25 332 3.2 4.8 0.00 0.00 0.00 96 1016.7
20260906051619 25 307 1.6 3.2 0.00 0.00 0.00 95 1016.5
20260906051115 25 184 3.2 4.8 0.00 0.00 0.00 95 1016.5
20260906050610 25 231 1.6 4.8 0.00 0.00 0.00 95 1016.7
20260906050105 25 209 0.0 1.6 0.00 0.00 0.00 95 1016.5
20260906045603 25 27 3.2 4.8 0.00 0.00 0.00 95 1016.7
20260906045059 25 191 3.2 4.8 0.00 0.00 0.00 95 1016.5
20260906044555 25 202 1.6 9.7 0.00 0.00 0.00 95 1016.6
20260906044054 25 336 3.2 4.8 0.00 0.00 0.00 95 1016.7
20260906043550 25 247 1.6 6.4 0.00 0.00 0.00 95 1016.5
20260906043046 25 235 1.6 3.2 0.00 0.00 0.00 94 1016.4
20260906042545 25 10 3.2 3.2 0.00 0.00 0.00 94 1016.3
20260906042040 25 14 1.6 3.2 0.00 0.00 0.00 94 1016.3
20260906041536 25 22 3.2 6.4 0.00 0.00 0.00 93 1016.1
20260906041031 26 187 1.6 3.2 0.00 0.00 0.00 93 1015.9
20260906040526 26 188 0.0 3.2 0.00 0.00 0.00 93 1016.0
20260906040022 26 333 0.0 4.8 0.00 0.00 0.00 92 1015.9
20260906035516 26 5 1.6 3.2 0.00 0.00 0.00 92 1015.9
20260906035013 26 357 1.6 3.2 0.00 0.00 0.00 92 1016.1
20260906034513 26 332 0.0 6.4 0.00 0.00 0.00 91 1015.9
20260906034008 26 305 0.0 3.2 0.00 0.00 0.00 91 1015.8
20260906033508 26 17 1.6 3.2 0.00 0.00 0.00 91 1015.8
20260906033004 26 127 0.0 4.8 0.00 0.00 0.00 90 1015.9
20260906032501 26 341 0.0 6.4 0.00 0.00 0.00 90 1016.0
20260906032000 26 217 0.0 3.2 0.00 0.00 0.00 89 1015.9
20260906031456 27 342 1.6 4.8 0.00 0.00 0.00 89 1015.8
20260906030951 27 325 0.0 3.2 0.00 0.00 0.00 89 1015.9
20260906030446 27 333 0.0 3.2 0.00 0.00 0.00 88 1015.9
20260906025946 27 11 3.2 9.7 0.00 0.00 0.00 88 1015.6
20260906025446 27 199 0.0 4.8 0.00 0.00 0.00 88 1015.7
20260906024944 27 300 0.0 1.6 0.00 0.00 0.00 87 1015.6
20260906024444 27 20 1.6 3.2 0.00 0.00 0.00 87 1015.5
20260906023939 27 113 1.6 4.8 0.00 0.00 0.00 86 1015.3
20260906023436 27 224 0.0 3.2 0.00 0.00 0.00 86 1015.3
20260906022935 27 306 1.6 6.4 0.00 0.00 0.00 86 1015.2
20260906022431 27 246 0.0 9.7 0.00 0.00 0.00 86 1015.1
20260906021926 27 180 1.6 4.8 0.00 0.00 0.00 86 1015.0
20260906021427 27 314 1.6 3.2 0.00 0.00 0.00 85 1015.1
20260906020926 28 7 3.2 3.2 0.00 0.00 0.00 85 1015.1
20260906020421 28 200 3.2 9.7 0.00 0.00 0.00 85 1015.1
20260906015921 28 32 1.6 3.2 0.00 0.00 0.00 84 1014.8
20260906015421 28 263 1.6 4.8 0.00 0.00 0.00 84 1015.0
20260906014920 28 217 0.0 4.8 0.00 0.00 0.00 83 1014.8
20260906014420 28 320 0.0 3.2 0.00 0.00 0.00 83 1014.8
20260906013916 28 353 0.0 3.2 0.00 0.00 0.00 82 1014.7
20260906013412 28 249 0.0 3.2 0.00 0.00 0.00 82 1015.0
20260906012907 28 271 0.0 3.2 0.00 0.00 0.00 81 1014.8
20260906012402 28 0 1.6 4.8 0.00 0.00 0.00 81 1014.9
20260906011901 28 329 1.6 4.8 0.00 0.00 0.00 81 1014.7
20260906011356 28 14 3.2 4.8 0.00 0.00 0.00 81 1014.8
20260906010852 28 283 0.0 0.0 0.00 0.00 0.00 81 1014.6
20260906010348 28 219 0.0 1.6 0.00 0.00 0.00 80 1014.6
20260906005844 29 240 0.0 3.2 0.00 0.00 0.00 80 1014.6
20260906005343 29 161 0.0 0.0 0.00 0.00 0.00 79 1014.6
20260906004842 29 17 1.6 4.8 0.00 0.00 0.00 79 1014.7
20260906004342 29 259 0.0 1.6 0.00 0.00 0.00 78 1014.6
20260906003837 30 224 0.0 1.6 0.00 0.00 0.00 78 1014.5
20260906003332 30 347 1.6 4.8 0.00 0.00 0.00 77 1014.4
20260906002827 30 232 1.6 3.2 0.00 0.00 0.00 77 1014.4
20260906002327 30 272 1.6 4.8 0.00 0.00 0.00 76 1014.6
20260906001823 30 19 3.2 6.4 0.00 0.00 0.00 76 1014.3
20260906001318 30 44 1.6 3.2 0.00 0.00 0.00 76 1014.6
20260906000813 30 242 3.2 3.2 0.00 0.00 0.00 75 1014.5
20260906000307 30 31 3.2 6.4 0.00 0.00 0.00 75 1014.4
20260905235803 30 247 3.2 4.8 0.00 0.00 0.00 75 1014.3
20260905235306 30 295 3.2 4.8 0.00 0.00 0.00 75 1014.3
20260905234757 30 342 0.0 3.2 0.00 0.00 0.00 75 1014.4
20260905234252 30 146 3.2 4.8 0.00 0.00 0.00 75 1014.5
20260905233748 31 333 3.2 4.8 0.00 0.00 0.00 75 1014.4
20260905233248 31 327 1.6 3.2 0.00 0.00 0.00 75 1014.2
20260905232747 31 330 0.0 1.6 0.00 0.00 0.00 75 1014.3
20260905232244 31 284 1.6 9.7 0.00 0.00 0.00 75 1014.3
20260905231739 31 277 3.2 4.8 0.00 0.00 0.00 75 1014.2
20260905231234 31 332 3.2 9.7 0.00 0.00 0.00 74 1014.1
20260905230731 31 341 0.0 9.7 0.00 0.00 0.00 74 1014.3
20260905230228 31 348 1.6 9.7 0.00 0.00 0.00 73 1014.2
20260905225727 31 199 3.2 6.4 0.00 0.00 0.00 72 1014.2
20260905225223 31 53 4.8 6.4 0.00 0.00 0.00 71 1014.2
20260905224722 31 289 0.0 6.4 0.00 0.00 0.00 72 1014.3
20260905224217 31 227 1.6 6.4 0.00 0.00 0.00 71 1014.2
20260905223713 32 132 1.6 6.4 0.00 0.00 0.00 71 1014.4
20260905223210 32 223 1.6 6.4 0.00 0.00 0.00 70 1014.3
20260905222706 32 292 3.2 4.8 0.00 0.00 0.00 70 1014.2
20260905222205 32 178 1.6 4.8 0.00 0.00 0.00 70 1014.3
20260905221701 32 359 1.6 6.4 0.00 0.00 0.00 69 1014.3
20260905221158 32 332 0.0 6.4 0.00 0.00 0.00 70 1014.3
20260905220653 32 186 1.6 1.6 0.00 0.00 0.00 70 1014.2
20260905220149 32 276 3.2 6.4 0.00 0.00 0.00 70 1014.3
20260905215648 32 209 1.6 3.2 0.00 0.00 0.00 70 1014.3
20260905215144 31 1 3.2 4.8 0.00 0.00 0.00 71 1014.3
20260905214641 32 27 3.2 6.4 0.00 0.00 0.00 70 1014.4
20260905214141 32 234 1.6 3.2 0.00 0.00 0.00 70 1014.3
20260905213636 32 150 1.6 3.2 0.00 0.00 0.00 71 1014.3
20260905213131 31 22 1.6 6.4 0.00 0.00 0.00 72 1014.4
20260905212626 31 344 1.6 3.2 0.00 0.00 0.00 71 1014.6
20260905212126 31 241 3.2 4.8 0.00 0.00 0.00 72 1014.7
20260905211621 31 26 3.2 4.8 0.00 0.00 0.00 71 1014.4
20260905211116 32 39 3.2 9.7 0.00 0.00 0.00 70 1014.3
20260905210613 31 191 4.8 6.4 0.00 0.00 0.00 70 1014.2
20260905210108 31 176 1.6 11.3 0.00 0.00 0.00 70 1014.2
20260905205607 32 242 1.6 3.2 0.00 0.00 0.00 69 1014.0
20260905205106 32 226 0.0 11.3 0.00 0.00 0.00 70 1014.1
20260905204601 32 15 1.6 6.4 0.00 0.00 0.00 69 1014.2
20260905204056 32 253 1.6 9.7 0.00 0.00 0.00 70 1014.3
20260905203555 32 322 4.8 11.3 0.00 0.00 0.00 70 1014.3
20260905203051 32 19 8.0 11.3 0.00 0.00 0.00 70 1014.3
20260905202546 32 149 3.2 17.7 0.00 0.00 0.00 70 1014.4
20260905202042 32 298 3.2 4.8 0.00 0.00 0.00 71 1014.5
20260905201537 32 54 1.6 4.8 0.00 0.00 0.00 71 1014.4
20260905201037 32 149 0.0 3.2 0.00 0.00 0.00 70 1014.6
20260905200532 32 312 3.2 4.8 0.00 0.00 0.00 73 1014.7
20260905200032 32 338 6.4 9.7 0.00 0.00 0.00 71 1014.7
20260905195526 32 238 0.0 4.8 0.00 0.00 0.00 73 1014.6
20260905195022 32 335 4.8 9.7 0.00 0.00 0.00 72 1014.8
20260905194521 32 34 3.2 4.8 0.00 0.00 0.00 72 1014.8
20260905194021 32 23 6.4 11.3 0.00 0.00 0.00 72 1015.1
20260905193515 31 46 1.6 3.2 0.00 0.00 0.00 74 1015.1
20260905193011 32 340 3.2 6.4 0.00 0.00 0.00 72 1015.1
20260905192506 32 216 0.0 6.4 0.00 0.00 0.00 73 1015.3
20260905192002 32 304 0.0 9.7 0.00 0.00 0.00 71 1015.4
20260905191501 32 6 3.2 6.4 0.00 0.00 0.00 70 1015.4
20260905191000 32 353 1.6 4.8 0.00 0.00 0.00 71 1015.7
20260905190458 32 2 0.0 3.2 0.00 0.00 0.00 71 1015.8
20260905185957 32 208 0.0 3.2 0.00 0.00 0.00 73 1015.9
20260905185452 32 302 1.6 6.4 0.00 0.00 0.00 73 1015.7
20260905184951 32 273 1.6 6.4 0.00 0.00 0.00 72 1016.0
20260905184446 32 243 3.2 6.4 0.00 0.00 0.00 72 1015.9
20260905183944 32 108 4.8 6.4 0.00 0.00 0.00 72 1016.0
20260905183439 32 345 4.8 9.7 0.00 0.00 0.00 73 1016.0
20260905182934 31 24 4.8 6.4 0.00 0.00 0.00 73 1016.0
20260905182433 31 189 1.6 4.8 0.00 0.00 0.00 74 1016.5
20260905181929 31 281 4.8 6.4 0.00 0.00 0.00 74 1016.1
20260905181429 32 10 1.6 9.7 0.00 0.00 0.00 73 1016.0
20260905180928 32 108 3.2 6.4 0.00 0.00 0.00 73 1016.0
20260905180423 31 288 4.8 9.7 0.00 0.00 0.00 72 1015.9
20260905175918 31 351 3.2 9.7 0.00 0.00 0.00 73 1016.4
20260905175417 31 223 1.6 9.7 0.00 0.00 0.00 75 1016.5
20260905174913 31 333 4.8 9.7 0.00 0.00 0.00 76 1016.5
20260905174409 31 217 1.6 6.4 0.00 0.00 0.00 77 1016.5
20260905173904 31 174 6.4 9.7 0.00 0.00 0.00 76 1016.3
20260905173400 32 325 3.2 9.7 0.00 0.00 0.00 73 1016.5
20260905172855 32 247 3.2 6.4 0.00 0.00 0.00 73 1016.4